{"data":{"norad_id":59752,"intl_designator":"2024-090Y","name":"STARLINK-31822","alt_names":[],"object_type":"PAYLOAD","status":"ACTIVE","operator":null,"country":"US","launch_date":"2024-05-13","launch_site_code":"AFETR","launch_vehicle":null,"mission":null,"orbit_class":"UNKNOWN","rcs_meters":null,"size_class":null,"mass_kg":null,"dimensions":null,"purposes":["comms"],"wikipedia_slug":null,"has_3d_model":false,"image_url":null,"decayed_at":null,"tle_current":{"epoch":"2026-09-21T09:43:12.441504Z","epoch_age_seconds":93013,"freshness":"FRESH","line1":"1 59752U 24090Y   26264.40500511 -.00000080  00000+0  66260-5 0  9992","line2":"2 59752  43.0032 158.0737 0001124 275.8231  84.2493 15.27573422133363","mean_motion":15.27573422,"eccentricity":0.0001124,"inclination_deg":43.0032,"raan_deg":158.0737,"arg_perigee_deg":275.8231,"mean_anomaly_deg":84.2493,"bstar":6.626e-6,"rev_number":13336,"period_min":94.267154642862,"perigee_km":482.29759347762,"apogee_km":483.83999253989,"semimajor_km":6861.2057930088,"source":"CELESTRAK","updated_at":"2026-09-22T09:00:49.066579Z"}}}